www.pogodaiklimat.ru

АРХИВ ПОГОДЫ в Форт Смит

Время (UTC), дата Ветер
(напр.,м/с)
 
Видим.   Явления Облачность Т
(С)
Тd
(С)
f
(%)
Тe
(С)
Тes
(С)
Комфортность

P
(гПа)

Po
(гПа)
Тmin
(С)
Tmax
(С)
R
(мм)
SD
(см)
07:45 18.06   16 км    ясно  +21.1  +20.0  93  +26  +26  душно    995.1         
07:53 18.06 З  16 км    ясно  +21.1  +19.4  90  +26  +26  душно  1012.0  995.5         
08:39 18.06   16 км    2/2 1950 м  +21.7  +20.0  90  +27  +27  душно    995.1         
08:53 18.06   16 км    ясно  +20.6  +19.4  93  +25  +25  комфорт  1011.7  995.1         
09:09 18.06   16 км    ясно  +21.1  +19.4  90  +26  +26  душно    995.1         
09:53 18.06   16 км    ясно  +21.1  +19.4  90  +26  +26  душно  1011.8  995.1         
10:53 18.06   16 км    5/5 960 м  +21.1  +19.4  90  +26  +26  душно  1012.3  995.8  +20.0  +22.8     
11:53 18.06 З  16 км    ясно  +23.3  +20.6  85  +31  +31  очень
душно 
1012.6  996.1         
12:53 18.06 З  16 км    ясно  +25.0  +21.1  79  +32  +34  очень
душно 
1012.9  996.5         
13:34 18.06 ЮЗ  16 км    8/8 510 м  +25.6  +21.1  76  +32  +33  очень
душно 
  996.5         
13:53 18.06 З  16 км    8/8 510 м  +26.1  +21.1  74  +33  +34  очень
душно 
1012.8  996.5         
14:00 18.06 нст  16 км    2/2 510 м  +26.7  +21.1  71  +34  +42  очень
душно 
  996.5         
14:53 18.06 нст  16 км    2/2 720 м  +28.3  +21.7  67  +36  +44  очень
душно 
1012.1  995.8         
15:53 18.06 нст  16 км    8/8 1020 м  +27.8  +20.0  63  +34  +37  очень
душно 
1012.3  995.8         
16:53 18.06 З  16 км    8/8 1290 м  +28.9  +20.6  61  +36  +39  очень
душно 
1012.2  995.8  +20.6  +30.0     
17:53 18.06 ЮЗ  16 км    8/8 1440 м  +30.0  +20.6  57  +37  +40  очень
душно 
1011.5  995.1         
18:53 18.06   16 км    8/8 1410 м  +30.6  +20.0  53  +37  +42  очень
душно 
1011.0  994.5         
19:53 18.06 нст  16 км    2/2 1800 м  +31.1  +20.0  52  +38  +51  опасность
солнечного
удара 
1010.3  993.8         
20:53 18.06 З  16 км    5/5 1650 м  +32.2  +20.0  49  +39  +44  очень
душно 
1009.5  993.1         
21:53 18.06 З  16 км    2/2 1650 м  +31.7  +19.4  48  +37  +41  очень
душно 
1008.7  992.5         
22:53 18.06 ЮЗ  16 км    ясно  +30.0  +20.0  55  +36  +40  очень
душно 
1008.4  991.8  +28.9  +32.2     
23:53 18.06 ЮЗ  16 км    ясно  +29.4  +20.6  59  +36  +38  очень
душно 
1008.5  992.1         
00:53 19.06   16 км    ясно  +28.3  +21.1  65  +36  +36  очень
душно 
1008.8  992.5         
01:53 19.06   16 км    ясно  +26.7  +21.7  74  +34  +34  очень
душно 
1009.2  992.8         
02:53 19.06   16 км    2/2 1320 м  +25.6  +21.7  79  +33  +33  очень
душно 
1009.8  993.5         
03:53 19.06 СВ  16 км    2/2 1290 м  +24.4  +21.7  85  +31  +31  очень
душно 
1010.4  994.1         
04:53 19.06 СВ  16 км    2/2 1470 м  +24.4  +22.2  88  +32  +32  очень
душно 
1010.1  993.8  +23.9  +30.0     
05:53 19.06   16 км    ясно  +23.9  +22.2  90  +31  +31  очень
душно 
1009.7  993.5         
06:53 19.06 С  16 км    ясно  +23.3  +21.7  91  +32  +32  очень
душно 
1007.4  991.1         
07:53 19.06   16 км    2/2 1800 м  +23.3  +21.7  91  +32  +32  очень
душно 
1008.0  991.8         
08:53 19.06   16 км    2/0 2250 м
[средняя] 
+23.3  +21.1  87  +31  +31  очень
душно 
1007.1  990.8         
09:28 19.06 ЮЗ  6
{11} 
16 км  слабый дождь  10/10 1080 м  +24.4  +19.4  74  +30  +30  очень
душно 
           
09:40 19.06 ЮЗ  16 км  гроза  8/8 1650 м
[средняя] 
+23.9  +19.4  76  +29  +29  душно    990.8         
09:53 19.06 ЮЗ  16 км  слабый дождь  5/5 1800 м
[средняя] 
+23.9  +18.9  74  +29  +29  душно  1006.8  990.5         
10:53 19.06 З  16 км  слабый дождь  8/2 1500 м
[средняя] 
+21.7  +20.0  90  +27  +27  душно  1007.7  991.5  +21.7  +25.0     
11:53 19.06   16 км    ясно  +22.2  +20.0  87  +28  +29  душно  1007.3  990.8         
12:53 19.06 СЗ  16 км    ясно  +24.4  +20.0  76  +30  +33  очень
душно 
1008.3  991.8         
13:53 19.06 З  16 км    2/2 540 м  +25.0  +20.0  74  +31  +35  очень
душно 
1008.2  991.8         
14:53 19.06 З  7
{9} 
16 км    2/0 3300 м
[средняя] 
+27.2  +19.4  62  +33  +35  очень
душно 
1008.0  991.8         
15:53 19.06 ЮЗ  16 км    ясно  +28.3  +19.4  59  +34  +38  очень
душно 
1007.7  991.5         
16:53 19.06 З  6
{10} 
16 км    ясно  +29.4  +20.6  59  +36  +41  очень
душно 
1007.2  990.8  +21.1  +29.4     
17:53 19.06 З  5
{8} 
16 км    5/0 3000 м
[средняя] 
+30.6  +21.1  57  +38  +43  очень
душно 
1006.6  990.5         
18:53 19.06 З  4
{9} 
16 км    ясно  +30.6  +21.1  57  +38  +50  очень
душно 
1006.3  990.1         
19:53 19.06 З  4
{7} 
16 км    2/0 2700 м
[средняя] 
+31.1  +21.1  55  +39  +49  очень
душно 
1005.9  989.5         
20:53 19.06 ЮЗ  16 км    ясно  +31.7  +21.7  55  +40  +48  очень
душно 
1005.3  989.1         
21:53 19.06 СЗ  16 км    8/0 2550 м
[средняя] 
+30.6  +21.1  57  +38  +40  очень
душно 
1004.2  987.8         
22:53 19.06 СЗ  16 км    8/0 2550 м
[средняя] 
+30.0  +20.6  57  +37  +38  очень
душно 
1004.0  987.8  +29.4  +31.7     
23:53 19.06 СЗ  16 км    10/0 2550 м
[средняя] 
+29.4  +20.0  57  +36  +36  очень
душно 
1004.8  988.5         

 

Местоположение метеостанции Fort Smith Regional Airport: широта 35.3336 долгота -94.3650 высота над уровнем моря 142 м.

В архиве по умолчанию представлена погода в Форт Смит за последние 1-2 суток. Обновление информации о фактической погоде в базе происходит ежечасно! Архивные данные за месяц целиком и за предыдущие месяцы Вы можете получить, выбрав интересующий диапазон дат из раскрывающегося списка и нажав кнопку "Ввод!".

Внимание! Архив погоды МЕТАР в базе сайта в настоящее время начинается c 1 января 2011 г. Нет смысла пытаться выбрать более раннюю дату.

Внимание! Время в таблицах - всемирное. Для получения местного времени необходимо прибавить поправку, которая в Форт Смит равна -6 ч.

Ветер - указаны скорость ветра в м/с и направление, откуда дует ветер: С - северный, СВ - северо-восточный, В - восточный, ЮВ - юго-восточный, Ю - южный, ЮЗ - юго-западный, З - западный, СЗ - северо-западный.
Видимость - горизонтальная дальность видимости в метрах или километрах. При видимости от 1 до 10 км при отсутствии осадков обычно наблюдается дымка, при ухудшении видимости до 1 км и менее - туман. В сухую погоду видимость может ухудшаться дымом, пылью или мглою.
Атмосферные явления - указаны явления, наблюдавшиеся в указанный момент времени.
Облачность - указаны через наклонную черту верхняя и нижняя облачность в баллах и высота нижней границы облаков в метрах. Внимание: облачность, как и прочие метеорологические величины в США измеряются автоматическими метеостанциями. Указанные значения в баллах носят условный характер и показывают процент времени, в течение которого, в среднем, лазерный луч высотомера отражался от облаков обратно.
T - Температура воздуха - температура, измеренная на высоте 2 м над землей.
Td - Температура точки росы - температура, при понижении до которой содержащийся в воздухе водяной пар достигнет насыщения.
f - Относительная влажность воздуха - влажноcть воздуха, измеренная на высоте 2 м над землей.
Te - Эффективная температура - температура, которую ощущает одетый по сезону человек в тени. Характеристика душности погоды. При расчете учитывается влияние влажности воздуха и скорости ветра на теплоощущения человека.
Tes - Эффективная температура на солнце - температура, которую ощущает человек, с поправкой на солнечный нагрев. Характеристика знойности погоды. Зависит от высоты солнца над горизонтом, облачности и скорости ветра. Ночью, в пасмурную погоду, а также при ветре 12 м/с и более поправка равна нулю.
P - Атмосферное давление - приведенное к уровню моря атмосферное давление.
Po - Атмосферное давление - измеренное на уровне метеостанции атмосферное давление.
Tmin - Минимальная температура - минимум температуры воздуха на высоте 2 м над землей.
Tmax - Максимальная температура - максимум температуры воздуха на высоте 2 м над землей.
R - Количество осадков - Количество выпавших осадков за 3 или 6 часов, мм.
SD - Снежный покров - Высота снежного покрова, см.